Weather reports worldwide

Advertisment
Tännäs, Sweden (2308): temperature & dewpoint: 23.05.2020 00:00:00 - 29.05.2020 00:00:00 (CEST)Tännäs, Sweden (2308): wind speed & gusts: 23.05.2020 00:00:00 - 29.05.2020 00:00:00 (CEST)Tännäs, Sweden (2308): wind direction: 23.05.2020 00:00:00 - 29.05.2020 00:00:00 (CEST)Tännäs, Sweden (2308): reduced air pressure: 23.05.2020 00:00:00 - 29.05.2020 00:00:00 (CEST)Tännäs, Sweden (2308): visibility: 23.05.2020 00:00:00 - 29.05.2020 00:00:00 (CEST)Tännäs, Sweden (2308): precipitation: 23.05.2020 00:00:00 - 29.05.2020 00:00:00 (CEST)
Date & Time tt [°C] td [°C] ff [km/h] ff [kn] fx [km/h] fx [kn] dd ppp [hPa] vv [km] rr [mm]
29.05.2020 00:00:00 - - - - - - - - - -
28.05.2020 23:00:00 3,8 -1,8 4 2 14 8 W 1033,4 50 0,0
28.05.2020 22:00:00 4,1 -1,7 4 2 17 9 WNW 1033,3 50 0,0
28.05.2020 21:00:00 4,6 -1,8 8 4 18 10 WNW 1033,2 50 0,0
28.05.2020 20:00:00 5,0 -1,9 6 3 15 8 WNW 1033,2 50 0,0
28.05.2020 19:00:00 5,2 -1,9 4 2 23 12 WNW 1033,2 50 0,0
28.05.2020 18:00:00 5,5 -1,9 11 6 29 16 WNW 1033,0 50 0,0
28.05.2020 17:00:00 6,0 -2,6 12 7 29 16 WNW 1032,5 50 0,0
28.05.2020 16:00:00 6,6 -2,6 14 7 32 17 WNW 1032,0 50 0,0
28.05.2020 15:00:00 5,9 -2,5 14 8 29 16 WNW 1032,5 50 0,0
28.05.2020 14:00:00 5,5 -2,3 11 6 27 15 WNW 1032,4 50 0,0
28.05.2020 13:00:00 5,2 -2,2 11 6 24 13 WNW 1032,2 50 0,0
28.05.2020 12:00:00 4,7 -2,0 10 5 27 15 WNW 1032,6 50 0,0
28.05.2020 11:00:00 4,8 -2,5 6 4 26 14 WNW 1032,1 50 0,0
28.05.2020 10:00:00 4,6 -2,7 4 2 15 8 W 1032,0 50 0,0
28.05.2020 09:00:00 4,1 -2,5 6 4 20 11 W 1032,1 50 0,0
28.05.2020 08:00:00 3,5 -2,3 10 6 22 12 WNW 1032,3 50 0,0
28.05.2020 07:00:00 3,5 -2,3 7 4 17 9 W 1031,9 50 0,0
28.05.2020 06:00:00 3,3 -2,2 7 4 19 10 WNW 1031,7 50 0,0
28.05.2020 05:00:00 3,1 -2,8 6 3 16 9 WNW 1031,4 50 0,0
28.05.2020 04:00:00 2,9 -3,0 5 3 17 9 WNW 1031,2 50 0,0
28.05.2020 03:00:00 2,8 -2,7 4 2 22 12 NW 1031,1 50 0,0
28.05.2020 02:00:00 3,0 -2,3 11 6 25 13 NW 1031,0 50 0,0
28.05.2020 01:00:00 3,0 -2,3 6 3 19 11 WNW 1031,1 50 0,0
28.05.2020 00:00:00 3,1 -2,4 6 4 23 13 WNW 1030,8 50 0,0
27.05.2020 23:00:00 3,4 -2,6 8 5 26 14 WNW 1031,0 50 0,0
27.05.2020 22:00:00 3,6 -3,0 6 3 22 12 WNW 1030,6 50 0,0
27.05.2020 21:00:00 4,4 -3,4 3 2 24 13 SW 1029,9 50 0,0
27.05.2020 20:00:00 6,2 -2,4 8 4 31 17 W 1029,3 50 0,0
27.05.2020 19:00:00 6,2 -2,7 8 5 28 15 WNW 1028,8 50 0,0
27.05.2020 18:00:00 9,3 -2,6 10 5 31 17 W 1027,4 49 0,0
27.05.2020 17:00:00 9,6 -3,7 9 5 30 16 W 1027,0 50 0,0
27.05.2020 16:00:00 10,3 -4,1 5 3 28 15 WNW 1026,6 50 0,0
27.05.2020 15:00:00 11,8 -4,8 6 4 31 17 W 1025,8 38 0,0
27.05.2020 14:00:00 10,1 -5,9 13 7 27 15 WNW 1026,6 43 0,0
27.05.2020 13:00:00 10,1 -3,9 10 5 24 13 W 1026,7 48 0,0
27.05.2020 12:00:00 9,7 -3,3 10 5 28 15 W 1027,1 40 0,0
27.05.2020 11:00:00 8,5 -2,8 6 3 20 11 W 1027,6 46 0,0
27.05.2020 10:00:00 7,0 -2,7 8 5 24 13 W 1028,2 50 0,0
27.05.2020 09:00:00 6,4 -3,0 4 2 14 7 WSW 1028,4 50 0,0
27.05.2020 08:00:00 5,9 -2,0 4 2 15 8 WSW 1028,3 47 0,0
27.05.2020 07:00:00 5,0 -2,6 4 2 14 8 W 1029,0 50 0,0
27.05.2020 06:00:00 4,5 -1,1 3 2 11 6 W 1029,2 50 0,3
27.05.2020 05:00:00 3,9 -0,9 2 1 7 4 W 1029,3 50 0,0
27.05.2020 04:00:00 3,8 -1,0 0 0 6 3 N 1029,5 50 0,0
27.05.2020 03:00:00 3,0 -1,7 2 1 9 5 SSE 1030,0 50 0,0
27.05.2020 02:00:00 4,3 -0,3 3 1 13 7 WSW 1029,5 50 0,0
27.05.2020 01:00:00 4,4 0,5 5 3 16 8 SSW 1029,0 50 0,0
27.05.2020 00:00:00 6,5 0,8 3 2 8 4 NW 1027,6 50 0,0
26.05.2020 23:00:00 6,8 0,2 0 0 6 3 N 1027,6 50 0,0
26.05.2020 22:00:00 8,5 0,2 2 1 14 7 NW 1027,2 50 0,0
26.05.2020 21:00:00 12,0 -0,2 5 3 15 8 WNW 1026,0 50 0,0
26.05.2020 20:00:00 11,6 -1,2 4 2 19 10 WNW 1026,3 50 0,0
26.05.2020 19:00:00 13,0 -2,1 7 4 27 15 WSW 1025,9 50 0,0
26.05.2020 18:00:00 13,8 -2,6 9 5 27 14 W 1025,8 50 0,0
26.05.2020 17:00:00 14,6 -2,3 10 6 33 18 W 1025,7 50 0,0
26.05.2020 16:00:00 17,9 -0,4 14 7 34 18 SW 1024,9 45 0,0
26.05.2020 15:00:00 16,4 1,7 9 5 31 17 SSW 1025,6 50 0,0
26.05.2020 14:00:00 15,8 0,4 13 7 - - SSW 1026,1 46 0,0
26.05.2020 13:00:00 16,6 1,5 13 7 32 17 S 1025,9 50 0,0
26.05.2020 12:00:00 16,5 2,1 13 7 30 16 S 1026,1 46 0,0
26.05.2020 11:00:00 13,3 3,6 10 6 29 15 S 1027,8 50 0,0
26.05.2020 10:00:00 12,8 3,7 9 5 23 13 SSW 1028,2 50 0,0
26.05.2020 09:00:00 12,2 3,4 9 5 19 11 SSW 1028,6 50 0,0
26.05.2020 08:00:00 10,4 3,2 5 3 12 6 S 1029,1 50 0,0
26.05.2020 07:00:00 8,2 2,2 4 2 12 6 S 1030,1 50 0,0
26.05.2020 06:00:00 6,9 1,0 5 3 12 7 S 1030,8 50 0,0
26.05.2020 05:00:00 6,0 0,3 4 2 11 6 SE 1031,3 50 0,0
26.05.2020 04:00:00 5,0 -0,6 0 0 8 5 N 1031,8 50 0,0
26.05.2020 03:00:00 5,7 -0,2 3 2 8 5 SE 1031,9 50 0,0
26.05.2020 02:00:00 6,0 -0,5 3 2 11 6 SSE 1031,8 50 0,0
26.05.2020 01:00:00 6,7 -1,5 3 2 11 6 S 1031,8 50 0,0
26.05.2020 00:00:00 5,9 -1,5 0 0 5 3 N 1032,0 50 0,0
25.05.2020 23:00:00 7,4 -1,3 0 0 10 6 N 1031,5 50 0,0
25.05.2020 22:00:00 8,3 -1,0 5 3 10 5 E 1031,0 50 0,0
25.05.2020 21:00:00 10,1 -1,6 0 0 8 5 N 1030,1 50 0,0
25.05.2020 20:00:00 13,0 -2,1 5 3 15 8 SSW 1029,0 50 0,0
25.05.2020 19:00:00 12,6 -1,4 4 2 12 6 E 1029,1 50 0,0
25.05.2020 18:00:00 12,8 -1,9 6 3 12 7 ESE 1028,7 50 0,0
25.05.2020 17:00:00 12,1 -0,4 3 2 9 5 NE 1028,8 50 0,0
25.05.2020 16:00:00 - - - - 18 10 - - - -
25.05.2020 15:00:00 14,0 0,6 4 2 16 8 NNE 1028,0 50 0,0
25.05.2020 14:00:00 12,1 0,5 7 4 17 9 WNW 1028,4 50 0,0
25.05.2020 13:00:00 12,8 2,3 6 3 17 9 W 1027,5 41 0,0
25.05.2020 12:00:00 10,6 0,6 4 2 19 10 WNW 1027,9 50 0,0
25.05.2020 11:00:00 10,1 1,7 5 3 18 10 WNW 1027,7 50 0,0
25.05.2020 10:00:00 8,3 2,5 7 4 19 10 W 1028,1 50 0,0
25.05.2020 09:00:00 8,8 3,4 5 3 16 9 W 1026,9 50 0,0
25.05.2020 08:00:00 6,6 2,3 4 2 10 5 W 1026,6 50 0,0
25.05.2020 07:00:00 4,3 1,7 3 1 9 5 WNW 1026,6 45 0,0
25.05.2020 06:00:00 3,2 1,1 2 1 5 3 NNE 1026,0 49 0,0
25.05.2020 05:00:00 3,6 1,2 0 0 6 4 N 1025,0 50 0,0
25.05.2020 04:00:00 3,1 0,8 2 1 5 3 SW 1024,0 50 0,0
25.05.2020 03:00:00 3,9 1,4 0 0 8 4 N 1022,7 45 0,0
25.05.2020 02:00:00 5,0 2,9 3 2 8 4 NW 1021,3 48 0,0
25.05.2020 01:00:00 5,0 2,9 3 2 6 3 N 1020,5 50 0,0
25.05.2020 00:00:00 4,8 2,8 3 2 5 3 E 1019,5 46 0,0
24.05.2020 23:00:00 4,8 2,5 0 0 3 2 N 1018,3 50 0,1
24.05.2020 22:00:00 5,8 3,1 2 1 4 2 NW 1017,3 15 0,2
24.05.2020 21:00:00 6,4 3,4 0 0 6 4 N 1016,2 19 0,9
24.05.2020 20:00:00 7,2 4,0 3 2 10 5 E 1014,8 11 0,4
24.05.2020 19:00:00 8,6 4,2 4 2 11 6 SSW 1013,0 50 0,1
24.05.2020 18:00:00 9,0 2,3 5 3 14 8 ESE 1011,9 38 0,0
24.05.2020 17:00:00 9,3 2,2 7 4 23 12 SE 1011,2 50 0,0
24.05.2020 16:00:00 9,4 3,2 6 3 25 13 SSE 1010,4 48 0,1
24.05.2020 15:00:00 8,4 3,2 9 5 22 12 S 1010,2 18 0,0
24.05.2020 14:00:00 8,1 2,8 10 5 29 15 S 1009,5 50 0,0
24.05.2020 13:00:00 7,8 1,6 11 6 27 14 S 1009,2 50 0,0
24.05.2020 12:00:00 6,9 1,2 12 7 31 17 S 1008,9 50 0,0
24.05.2020 11:00:00 6,8 1,1 10 5 32 17 S 1008,6 50 0,0
24.05.2020 10:00:00 6,1 0,6 10 5 25 13 S 1008,5 42 0,0
24.05.2020 09:00:00 6,0 0,5 8 4 29 16 SSE 1008,1 39 0,0
24.05.2020 08:00:00 5,6 1,5 8 4 22 12 SE 1008,1 50 0,0
24.05.2020 07:00:00 4,6 0,6 6 4 19 11 SE 1008,4 50 0,0
24.05.2020 06:00:00 4,2 0,7 5 3 18 10 SSE 1008,5 48 0,0
24.05.2020 05:00:00 3,6 0,6 5 3 16 9 S 1008,5 37 0,0
24.05.2020 04:00:00 3,7 0,7 7 4 23 12 S 1008,6 50 0,0
24.05.2020 03:00:00 3,7 0,4 7 4 18 10 S 1008,7 50 0,0
24.05.2020 02:00:00 4,2 0,5 5 3 16 9 SE 1009,0 50 0,0
24.05.2020 01:00:00 4,1 0,8 6 3 22 12 S 1009,3 50 0,0
24.05.2020 00:00:00 4,1 0,8 7 4 19 10 S 1009,2 50 0,0
23.05.2020 23:00:00 3,7 0,2 5 3 21 12 S 1009,3 50 0,0
23.05.2020 22:00:00 3,9 -0,3 7 4 22 12 SSE 1009,4 50 0,0
23.05.2020 21:00:00 5,7 1,2 8 4 25 14 S 1009,2 50 0,0
23.05.2020 20:00:00 6,7 1,6 6 4 29 16 SSE 1008,7 41 0,0
23.05.2020 19:00:00 7,1 1,6 11 6 37 20 SSE 1008,7 50 0,0
23.05.2020 18:00:00 10,3 2,6 11 6 33 18 SSE 1007,7 40 0,0
23.05.2020 17:00:00 9,3 2,2 15 8 - - S 1008,4 42 0,0
23.05.2020 16:00:00 9,0 2,1 10 5 31 17 S 1008,4 31 0,0
23.05.2020 15:00:00 10,4 3,2 11 6 35 19 S 1008,3 36 0,1
23.05.2020 14:00:00 9,0 2,6 16 9 38 20 S 1009,1 48 0,0
23.05.2020 13:00:00 6,9 2,6 13 7 34 18 S 1009,9 44 0,0
23.05.2020 12:00:00 5,4 2,4 12 6 31 17 S 1010,8 35 0,0
23.05.2020 11:00:00 5,5 2,0 8 4 32 18 S 1010,6 38 0,0
23.05.2020 10:00:00 5,6 2,4 12 7 31 17 S 1010,2 50 0,0
23.05.2020 09:00:00 5,8 2,6 13 7 36 19 S 1010,1 49 0,0
23.05.2020 08:00:00 5,1 2,1 11 6 25 14 S 1010,3 50 0,1
23.05.2020 07:00:00 4,2 1,7 7 4 24 13 S 1010,8 48 0,0
23.05.2020 06:00:00 4,5 2,0 9 5 26 14 SSE 1010,9 13 0,0
23.05.2020 05:00:00 4,9 2,1 8 5 31 17 SSE 1011,3 50 0,0
23.05.2020 04:00:00 5,1 2,5 12 7 28 15 SSE 1011,7 11 1,4
23.05.2020 03:00:00 5,7 2,7 10 5 28 15 SSE 1012,2 15 0,9
23.05.2020 02:00:00 6,1 2,6 8 4 20 11 SSE 1012,6 16 0,4
23.05.2020 01:00:00 6,5 2,8 10 5 29 16 S 1013,1 23 0,1
23.05.2020 00:00:00 8,5 0,7 16 9 36 19 S 1013,0 39 -

tt = temperature
td = dewpoint
ff = wind speed
fx = gusts
dd = wind direction
ppp = reduced air pressure
vv = visibility
rr = precipitation

Next stations